Precipitable_Water
0.44 0.49 0.51 0.55 0.62 0.59 0.54 0.53 0.52 0.51 0.52 0.46 0.36 0.31 0.33 0.33 0.35 0.36 0.36 0.36 0.36 0.34 0.30 0.29 0.27 0.30 0.31 0.33 0.30 0.29 0.29 0.29
0.46 0.50 0.54 0.57 0.61 0.57 0.54 0.51 0.52 0.50 0.47 0.38 0.30 0.28 0.31 0.33 0.35 0.35 0.36 0.37 0.36 0.33 0.31 0.29 0.28 0.27 0.30 0.31 0.29 0.28 0.28 0.31
0.47 0.52 0.54 0.57 0.58 0.55 0.52 0.52 0.51 0.50 0.47 0.37 0.31 0.30 0.32 0.33 0.35 0.34 0.35 0.34 0.32 0.32 0.30 0.29 0.28 0.26 0.29 0.29 0.30 0.29 0.30 0.33
0.42 0.47 0.53 0.58 0.57 0.52 0.51 0.53 0.51 0.47 0.45 0.33 0.31 0.31 0.30 0.31 0.30 0.31 0.30 0.29 0.30 0.30 0.29 0.27 0.25 0.28 0.28 0.31 0.34 0.34 0.31 0.36
0.44 0.53 0.57 0.57 0.55 0.56 0.55 0.51 0.48 0.45 0.40 0.31 0.29 0.29 0.29 0.30 0.29 0.30 0.27 0.30 0.29 0.29 0.27 0.26 0.28 0.27 0.29 0.34 0.39 0.40 0.40 0.36
0.46 0.51 0.57 0.58 0.56 0.54 0.52 0.49 0.45 0.44 0.35 0.32 0.31 0.31 0.30 0.29 0.28 0.27 0.27 0.28 0.30 0.28 0.27 0.27 0.26 0.29 0.34 0.40 0.43 0.43 0.43 0.41
0.47 0.53 0.57 0.52 0.53 0.53 0.51 0.46 0.41 0.39 0.32 0.33 0.33 0.29 0.26 0.25 0.26 0.25 0.27 0.27 0.26 0.26 0.28 0.29 0.33 0.37 0.42 0.46 0.48 0.47 0.46 0.46
0.49 0.48 0.46 0.47 0.49 0.49 0.46 0.43 0.38 0.33 0.32 0.32 0.30 0.28 0.26 0.25 0.27 0.27 0.25 0.24 0.25 0.28 0.33 0.35 0.40 0.47 0.50 0.51 0.49 0.48 0.47 0.45
0.45 0.45 0.45 0.46 0.47 0.47 0.45 0.39 0.32 0.30 0.32 0.30 0.28 0.28 0.27 0.28 0.28 0.26 0.25 0.25 0.29 0.37 0.38 0.41 0.47 0.51 0.51 0.49 0.47 0.46 0.45 0.44
0.43 0.43 0.45 0.46 0.47 0.46 0.42 0.33 0.29 0.31 0.30 0.28 0.27 0.28 0.27 0.26 0.25 0.25 0.24 0.29 0.35 0.39 0.44 0.48 0.51 0.51 0.47 0.45 0.42 0.43 0.44 0.42
0.42 0.43 0.45 0.47 0.47 0.45 0.36 0.31 0.31 0.30 0.28 0.28 0.27 0.27 0.26 0.24 0.24 0.23 0.27 0.34 0.38 0.43 0.49 0.51 0.50 0.48 0.45 0.41 0.40 0.42 0.41 0.40
0.41 0.43 0.45 0.46 0.46 0.39 0.32 0.31 0.29 0.27 0.28 0.28 0.27 0.26 0.23 0.24 0.23 0.26 0.32 0.36 0.42 0.48 0.51 0.50 0.50 0.46 0.40 0.39 0.40 0.39 0.36 0.38
0.41 0.42 0.44 0.43 0.38 0.33 0.31 0.29 0.27 0.27 0.28 0.27 0.25 0.23 0.23 0.21 0.24 0.30 0.35 0.40 0.48 0.49 0.48 0.49 0.47 0.42 0.39 0.37 0.36 0.39 0.35 0.36
0.39 0.41 0.42 0.39 0.34 0.30 0.27 0.27 0.27 0.27 0.26 0.24 0.22 0.21 0.20 0.22 0.27 0.33 0.37 0.46 0.50 0.49 0.49 0.46 0.44 0.47 0.46 0.44 0.44 0.42 0.36 0.35
0.39 0.40 0.39 0.36 0.31 0.27 0.26 0.26 0.27 0.27 0.24 0.21 0.20 0.20 0.20 0.25 0.31 0.33 0.41 0.47 0.48 0.53 0.54 0.52 0.49 0.51 0.51 0.51 0.50 0.48 0.44 0.42
0.39 0.39 0.37 0.33 0.28 0.25 0.26 0.26 0.26 0.25 0.21 0.19 0.19 0.19 0.23 0.27 0.31 0.35 0.43 0.44 0.50 0.53 0.55 0.55 0.55 0.55 0.52 0.55 0.54 0.51 0.50 0.48
0.39 0.38 0.35 0.30 0.26 0.24 0.25 0.25 0.25 0.24 0.20 0.18 0.18 0.20 0.24 0.27 0.34 0.36 0.38 0.44 0.50 0.54 0.56 0.57 0.57 0.57 0.60 0.60 0.59 0.58 0.57 0.55
0.36 0.35 0.33 0.28 0.25 0.25 0.24 0.24 0.24 0.21 0.19 0.18 0.17 0.21 0.24 0.29 0.33 0.37 0.42 0.53 0.53 0.55 0.58 0.56 0.55 0.57 0.61 0.62 0.61 0.62 0.64 0.63
0.35 0.34 0.31 0.27 0.24 0.24 0.24 0.24 0.22 0.20 0.18 0.16 0.17 0.21 0.24 0.28 0.33 0.35 0.49 0.50 0.51 0.54 0.57 0.59 0.61 0.60 0.63 0.65 0.65 0.66 0.68 0.70
Wind_Speed
18 17 17 17 16 17 17 18 19 21 23 25 26 27 27 29 29 30 32 32 31 31 32 32 32 32 33 33 34 35 35 35
17 16 15 14 14 15 16 17 19 21 24 26 27 28 28 29 31 31 31 31 31 33 33 33 34 34 35 35 36 36 36 36
14 12 13 13 14 14 15 16 19 22 25 27 27 29 29 30 29 31 31 31 34 33 34 34 35 36 36 37 37 36 36 35
13 12 13 12 13 13 14 16 20 22 26 27 28 29 29 29 30 30 32 34 33 34 35 35 36 36 36 36 35 34 34 33
11 13 11 12 11 12 14 17 20 24 26 28 29 28 29 29 30 31 33 33 34 34 35 35 34 35 35 34 33 32 31 31
9 9 9 8 10 11 14 18 21 25 27 27 27 28 29 30 31 32 33 34 34 35 34 33 35 33 32 31 31 31 31 30
7 6 6 6 9 11 16 19 22 24 25 26 27 28 30 31 31 33 33 34 33 31 32 32 32 31 31 31 31 31 30 29
3 3 4 6 9 14 17 20 22 24 25 26 27 29 30 31 32 33 34 32 30 29 30 31 31 31 32 32 32 31 32 32
2 1 4 7 11 14 17 21 22 24 25 26 27 28 30 31 32 32 30 28 28 29 31 30 30 31 33 34 35 33 29 28
2 2 5 8 11 15 19 21 22 24 25 26 27 28 30 31 31 28 26 26 28 31 32 31 32 33 35 34 32 27 25 24
2 3 6 9 13 16 19 20 22 23 24 25 26 28 30 30 27 25 25 27 29 31 32 33 32 31 32 28 22 17 19 21
4 5 8 10 14 17 19 20 22 23 24 24 26 28 28 25 24 24 25 28 30 32 33 32 29 30 28 25 19 16 15 13
5 6 9 12 15 17 19 21 22 22 23 24 27 27 25 24 23 24 27 29 31 31 35 30 31 29 28 27 24 18 13 8
7 8 10 13 16 18 20 21 21 22 23 25 25 24 23 24 23 25 28 29 31 32 34 31 29 29 31 30 30 29 22 15
7 10 12 15 17 19 20 20 21 22 24 24 23 23 23 23 25 26 29 30 31 32 32 32 30 30 29 30 29 28 27 26
8 10 13 15 17 19 19 21 22 23 23 22 22 23 23 24 25 26 28 30 32 34 35 31 32 31 31 33 33 34 33 33
9 11 14 16 18 19 19 21 23 23 22 22 22 24 24 25 25 28 30 32 34 35 36 36 37 34 33 34 34 35 38 39
10 12 15 17 19 19 20 22 23 23 22 23 23 25 25 26 27 28 29 31 33 36 36 39 39 39 39 39 39 38 37 39
11 13 16 18 20 19 21 23 23 23 22 23 25 25 26 26 27 29 30 32 34 37 37 39 39 40 38 37 38 42 42 41
Wind_Direction
264 269 272 276 280 287 291 296 302 308 311 313 314 313 312 310 309 309 308 308 306 306 305 302 300 297 294 292 290 288 284 282
263 268 272 275 282 287 292 297 305 310 314 316 316 315 314 313 312 311 311 309 307 307 305 302 300 297 295 293 291 288 285 283
261 266 271 275 283 287 293 301 307 313 317 317 318 317 316 315 315 314 313 311 309 307 305 303 301 299 296 293 290 287 285 282
263 263 270 275 282 289 295 304 312 317 320 320 320 319 318 318 318 316 315 313 311 309 307 304 302 299 297 294 291 287 284 282
254 265 268 276 285 293 304 311 317 320 323 323 323 323 322 321 320 318 318 316 314 311 309 306 304 302 299 295 292 288 285 281
254 261 262 275 291 301 311 315 320 323 324 326 326 326 325 323 323 322 321 318 316 314 312 310 308 305 301 297 293 288 285 278
245 268 269 287 303 313 317 320 324 326 328 329 329 328 328 328 327 325 323 322 320 318 316 314 312 308 304 300 295 289 285 277
214 244 283 307 316 320 322 326 329 330 331 331 332 332 332 331 330 329 327 327 326 324 323 320 316 312 308 303 298 291 284 276
190 297 317 322 325 329 331 331 332 333 334 335 335 335 335 334 333 332 333 333 333 331 328 325 322 317 313 307 298 291 284 277
97 350 337 337 338 338 336 336 337 337 338 339 340 340 339 339 338 340 341 341 339 336 332 330 326 323 321 314 305 289 280 275
56 9 355 350 345 342 341 342 342 342 343 344 344 344 344 344 347 348 348 346 344 343 342 338 336 334 332 330 323 307 289 281
56 23 3 355 350 348 348 347 347 348 349 349 350 349 350 355 356 356 355 353 352 351 352 349 352 350 355 353 344 330 315 294
53 25 10 360 357 355 354 353 354 355 356 355 355 356 2 4 5 4 3 2 3 6 5 9 10 14 17 19 18 13 8 358
51 28 13 7 2 1 0 0 2 2 1 0 3 9 12 12 14 11 10 11 14 14 17 20 23 26 27 31 34 35 37 42
49 30 20 13 9 7 8 10 8 7 6 10 16 18 21 22 20 20 22 22 22 22 25 26 27 27 31 33 31 35 48 54
49 34 24 18 14 14 17 16 14 13 16 23 25 27 27 25 26 27 27 27 27 29 28 30 30 38 40 35 45 53 58 66
54 38 30 24 22 22 24 21 20 22 29 32 34 33 32 32 36 35 35 34 35 35 35 38 39 41 38 46 52 61 63 73
57 44 36 31 29 31 30 29 28 33 39 40 39 36 38 39 38 37 36 36 36 40 43 43 46 47 54 59 63 60 67 73
63 52 43 38 37 39 37 35 38 41 44 44 42 40 42 42 42 41 41 45 47 47 48 47 51 52 56 63 65 61 65 69